Billings, MT

8:08 AM MDT on October 18, 2017 (GMT -0600)
Billings Logan International

Weather History for KBIL - September, 2012

Change the Weather History Date:

Wednesday, September 5, 2012

  Actual Average Record
Temperature  
Mean Temperature 63 °F 65 °F  
Max Temperature 82 °F 79 °F 95 °F (1945)
Min Temperature 43 °F 51 °F 37 °F (1956)
Degree Days  
Heating Degree Days 2 3  
Month to date heating degree days 2 14  
Since 1 July heating degree days 9 51  
Cooling Degree Days 0 3  
Month to date cooling degree days 25 17  
Year to date cooling degree days 918 599  
Growing Degree Days 12 (Base 50)    
Moisture  
Dew Point 34 °F    
Average Humidity 36    
Maximum Humidity 71    
Minimum Humidity 9    
Precipitation  
Precipitation 0.00 in 0.04 in 0.47 in (1993)
Month to date precipitation T 0.18  
Year to date precipitation 5.08 10.23  
Snow  
Snow 0.00 in 0.00 in 0.00 in (2002)
Month to date snowfall 0.0 0.0  
Since 1 July snowfall 0.0 0.0  
Since 1 September snowfall 0.0 0.0  
Snow Depth 0.00 in    
Sea Level Pressure  
Sea Level Pressure 29.97 in    
Wind  
Wind Speed 9 mph (SW)    
Max Wind Speed 15 mph    
Max Gust Speed 20 mph    
Visibility 10 miles    
Events      
T = Trace of Precipitation, MM = Missing Value Source: NWS Daily Summary

Daily Weather History Graph

Daily Weather History Graph

Search for Another Location

Airport or City:

Trip Planner

Search our weather history database for the weather conditions in past years. The results will help you decide how hot, cold, wet, or windy it might be!

Date:

Astronomy

Sep. 05, 2012 Rise Set
Actual Time 6:40 AM MDT 7:43 PM MDT
Civil Twilight 6:10 AM MDT 8:13 PM MDT
Nautical Twilight 5:33 AM MDT 8:50 PM MDT
Astronomical Twilight 4:55 AM MDT 9:28 PM MDT
Moon 9:55 PM MDT (9/5) 12:07 PM MDT (9/5)
Length of Visible Light 14h 03m
Length of Day
13h 02m
Waning Gibbous, 75% of the Moon is Illuminated
Sep 5
Waning Gibbous
Sep 8
Last Quarter
Sep 15
New
Sep 22
First Quarter
Sep 29
Full

Hourly Weather History & Observations

Time (MDT) Temp. Windchill Dew Point Humidity Pressure Visibility Wind Dir Wind Speed Gust Speed Precip Events Conditions
12:53 AM 53.1 °F - 37.0 °F 55% 30.12 in 10.0 mi SSE 4.6 mph - N/A   Clear
1:53 AM 54.0 °F - 36.0 °F 51% 30.11 in 10.0 mi South 4.6 mph - N/A   Clear
2:53 AM 51.1 °F - 36.0 °F 56% 30.10 in 10.0 mi SSW 5.8 mph - N/A   Clear
3:53 AM 48.9 °F - 36.0 °F 61% 30.10 in 10.0 mi SSW 6.9 mph - N/A   Clear
4:53 AM 50.0 °F - 35.1 °F 57% 30.09 in 10.0 mi Calm Calm - N/A   Clear
5:53 AM 46.0 °F 43.1 °F 36.0 °F 68% 30.09 in 10.0 mi SW 5.8 mph - N/A   Clear
6:53 AM 45.0 °F 39.7 °F 36.0 °F 71% 30.09 in 10.0 mi SW 10.4 mph - N/A   Clear
7:53 AM 48.0 °F - 36.0 °F 63% 30.09 in 10.0 mi WSW 11.5 mph - N/A   Clear
8:53 AM 50.0 °F - 37.0 °F 61% 30.07 in 10.0 mi SSW 9.2 mph - N/A   Clear
9:53 AM 55.0 °F - 39.0 °F 55% 30.04 in 10.0 mi SW 8.1 mph - N/A   Clear
10:53 AM 62.1 °F - 37.0 °F 39% 29.99 in 10.0 mi WSW 10.4 mph - N/A   Clear
11:53 AM 66.0 °F - 37.9 °F 36% 29.96 in 10.0 mi SSW 5.8 mph - N/A   Clear
12:53 PM 72.0 °F - 39.0 °F 30% 29.92 in 10.0 mi SSW 9.2 mph - N/A   Clear
1:53 PM 78.1 °F - 35.1 °F 21% 29.88 in 10.0 mi WSW 13.8 mph - N/A   Clear
2:53 PM 79.0 °F - 35.1 °F 20% 29.86 in 10.0 mi SSW 12.7 mph 19.6 mph N/A   Clear
3:53 PM 80.1 °F - 33.1 °F 18% 29.83 in 10.0 mi SW 10.4 mph - N/A   Clear
4:53 PM 81.0 °F - 30.9 °F 16% 29.82 in 10.0 mi SW 9.2 mph - N/A   Clear
5:53 PM 81.0 °F - 33.1 °F 18% 29.82 in 10.0 mi WSW 5.8 mph - N/A   Clear
6:53 PM 80.1 °F - 25.0 °F 13% 29.83 in 10.0 mi NNW 12.7 mph - N/A   Clear
7:53 PM 75.0 °F - 23.0 °F 14% 29.85 in 10.0 mi NNW 9.2 mph - N/A   Clear
8:53 PM 68.0 °F - 28.9 °F 23% 29.88 in 10.0 mi NNE 8.1 mph - N/A   Clear
9:53 PM 66.0 °F - 30.9 °F 27% 29.89 in 10.0 mi NNE 8.1 mph - N/A   Clear
10:53 PM 64.9 °F - 32.0 °F 29% 29.89 in 10.0 mi NNE 10.4 mph - N/A   Clear
11:53 PM 62.1 °F - 32.0 °F 32% 29.91 in 10.0 mi North 9.2 mph - N/A   Clear